Overview Statistics Trail Chart Weather Telemetry Raw packets
 

This is the latest recevied weather packets stored in our database for station/object 4S6DRJ-13. If no packets are shown the sender has not sent any weather packets the latest 10 day(s).

<< 459 460 461 462 463 464 465 >>
Time Temp. Humidity Pressure Rain* Wind** Luminosity Snow
1787756236 26.67° C 93% 1011.4 hPa 0 mm 0.45 m/s, 249° 0 W/m² -
1787756175 26.67° C 93% 1011.3 hPa 0 mm 0.45 m/s, 286° 0 W/m² -
1787756114 26.67° C 93% 1011.3 hPa 0 mm 0.89 m/s, 141° 0 W/m² -
1787756053 26.67° C 93% 1011.4 hPa 0 mm 0 m/s 0 W/m² -
1787755992 26.67° C 93% 1011.3 hPa 0 mm 1.34 m/s, 288° 0 W/m² -
1787755931 26.67° C 93% 1011.1 hPa 0 mm 0.89 m/s, 253° 0 W/m² -
1787755870 26.67° C 93% 1011.1 hPa 0 mm 0.89 m/s, 328° 0 W/m² -
1787755809 26.67° C 93% 1011 hPa 0 mm 0.45 m/s, 190° 0 W/m² -
1787755748 26.11° C 93% 1011.2 hPa 0 mm 1.79 m/s, 213° 0 W/m² -
1787755687 26.11° C 93% 1011.1 hPa 0 mm 0.89 m/s, 278° 0 W/m² -
1787755626 26.11° C 93% 1011.3 hPa 0 mm 1.34 m/s, 236° 0 W/m² -
1787755565 26.11° C 93% 1011.2 hPa 0 mm 0.89 m/s, 236° 0 W/m² -
1787755504 26.11° C 93% 1011 hPa 0 mm 1.34 m/s, 299° 0 W/m² -
1787755443 26.11° C 94% 1011 hPa 0 mm 0.45 m/s, 264° 0 W/m² -
1787755382 26.11° C 94% 1011.1 hPa 0 mm 0.45 m/s, 263° 0 W/m² -
1787755321 26.11° C 94% 1011.1 hPa 0 mm 0.45 m/s, 245° 0 W/m² -
1787755260 26.11° C 94% 1011.2 hPa 0 mm 0 m/s 0 W/m² -
1787755199 26.11° C 94% 1011 hPa 0 mm 0.89 m/s, 289° 0 W/m² -
1787755138 26.11° C 94% 1011.1 hPa 0 mm 0.45 m/s, 260° 0 W/m² -
1787755077 26.11° C 94% 1011.1 hPa 0 mm 0 m/s 0 W/m² -
1787755019 26.11° C 94% 1011.1 hPa 0 mm 0 m/s 0 W/m² -
1787754955 26.11° C 94% 1010.9 hPa 0 mm 0.89 m/s, 300° 0 W/m² -
1787754894 26.11° C 94% 1011 hPa 0 mm 0.45 m/s, 268° 0 W/m² -
1787754833 26.11° C 94% 1010.9 hPa 0 mm 0.45 m/s, 226° 0 W/m² -
1787754772 26.11° C 94% 1011.3 hPa 0 mm 0 m/s 0 W/m² -

* Rain latest hour (hover to see other rain measurements)
** Current wind speed in m/s (hover to see current wind gust speed)